Bemidji, MN

2:17 PM CST on December 15, 2017 (GMT -0600)
Bemidji-Beltrami County

Weather History for KBJI - December, 2012

Change the Weather History Date:

Tuesday, December 4, 2012

  Actual Average Record
Temperature  
Mean Temperature 12 °F -  
Max Temperature 19 °F 25 °F 46 °F (1982)
Min Temperature 6 °F 7 °F -25 °F (1991)
Degree Days  
Heating Degree Days 52    
Moisture  
Dew Point 7 °F    
Average Humidity 75    
Maximum Humidity 87    
Minimum Humidity 63    
Precipitation  
Precipitation 0.00 in - - ()
Sea Level Pressure  
Sea Level Pressure 30.15 in    
Wind  
Wind Speed 13 mph (WNW)    
Max Wind Speed 20 mph    
Max Gust Speed 26 mph    
Visibility 10 miles    
Events Snow    
Averages and records for this station are not official NWS values.
T = Trace of Precipitation, MM = Missing Value Source: NWS Daily Summary

Daily Weather History Graph

Daily Weather History Graph

Search for Another Location

Airport or City:

Trip Planner

Search our weather history database for the weather conditions in past years. The results will help you decide how hot, cold, wet, or windy it might be!

Date:

Astronomy

Dec. 04, 2012 Rise Set
Actual Time 7:50 AM CST 4:29 PM CST
Civil Twilight 7:15 AM CST 5:04 PM CST
Nautical Twilight 6:36 AM CST 5:43 PM CST
Astronomical Twilight 5:59 AM CST 6:20 PM CST
Moon 10:34 PM CST (12/4) 11:30 AM CST (12/4)
Length of Visible Light 9h 49m
Length of Day
8h 38m
Waning Gibbous, 69% of the Moon is Illuminated
Dec 4
Waning Gibbous
Dec 6
Last Quarter
Dec 13
New
Dec 19
First Quarter
Dec 28
Full

Hourly Weather History & Observations

Time (CST) Temp. Windchill Dew Point Humidity Pressure Visibility Wind Dir Wind Speed Gust Speed Precip Events Conditions
12:15 AM 17.2 °F 1.7 °F 9.5 °F 72% 29.84 in 10.0 mi West 17.3 mph - N/A   Scattered Clouds
12:35 AM 16.7 °F 2.0 °F 9.3 °F 73% 29.85 in 10.0 mi West 15.0 mph 23.0 mph N/A   Clear
12:55 AM 16.3 °F 0.1 °F 9.0 °F 73% 29.86 in 10.0 mi West 18.4 mph 24.2 mph N/A   Scattered Clouds
1:15 AM 16.0 °F -0.4 °F 8.6 °F 73% 29.87 in 10.0 mi West 18.4 mph 26.5 mph N/A   Mostly Cloudy
1:35 AM 15.8 °F 0.3 °F 8.6 °F 73% 29.88 in 10.0 mi West 16.1 mph 23.0 mph N/A   Overcast
1:55 AM 15.8 °F 0.3 °F 9.1 °F 75% 29.89 in 10.0 mi West 16.1 mph 19.6 mph N/A Snow Light Snow
2:15 AM 15.8 °F -0.6 °F 9.1 °F 75% 29.90 in 10.0 mi West 18.4 mph 23.0 mph N/A Snow Light Snow
2:35 AM 15.4 °F -0.6 °F 8.6 °F 74% 29.92 in 10.0 mi West 17.3 mph - N/A Snow Light Snow
2:55 AM 14.9 °F -0.3 °F 9.0 °F 77% 29.93 in 7.0 mi West 15.0 mph - N/A Snow Light Snow
3:15 AM 14.4 °F -1.5 °F 8.6 °F 78% 29.93 in 10.0 mi West 16.1 mph 23.0 mph N/A Snow Light Snow
3:35 AM 12.9 °F -4.4 °F 6.3 °F 75% 29.94 in 10.0 mi West 18.4 mph 21.9 mph N/A Snow Light Snow
3:55 AM 12.0 °F -4.0 °F 4.8 °F 73% 29.95 in 10.0 mi West 15.0 mph 18.4 mph N/A   Clear
4:15 AM 11.3 °F -2.9 °F 3.9 °F 72% 29.96 in 10.0 mi West 11.5 mph 21.9 mph N/A   Mostly Cloudy
4:35 AM 11.1 °F -4.5 °F 3.7 °F 72% 29.97 in 10.0 mi West 13.8 mph - N/A   Mostly Cloudy
4:55 AM 10.6 °F -4.5 °F 3.6 °F 73% 29.99 in 10.0 mi West 12.7 mph - N/A   Scattered Clouds
5:15 AM 10.4 °F -4.1 °F 3.9 °F 75% 29.99 in 10.0 mi West 11.5 mph - N/A   Scattered Clouds
5:35 AM 10.2 °F -3.5 °F 3.9 °F 76% 30.01 in 10.0 mi West 10.4 mph - N/A   Scattered Clouds
5:55 AM 10.2 °F -4.3 °F 4.3 °F 77% 30.02 in 10.0 mi West 11.5 mph 18.4 mph N/A   Mostly Cloudy
6:15 AM 10.2 °F -5.0 °F 4.1 °F 76% 30.02 in 10.0 mi WNW 12.7 mph - N/A   Scattered Clouds
6:35 AM 9.7 °F -4.2 °F 3.9 °F 77% 30.03 in 10.0 mi WNW 10.4 mph - N/A Snow Light Snow
6:55 AM 9.7 °F -7.5 °F 4.1 °F 78% 30.04 in 10.0 mi WNW 16.1 mph - N/A   Clear
7:15 AM 9.9 °F -4.7 °F 3.9 °F 77% 30.06 in 10.0 mi WNW 11.5 mph - N/A   Clear
7:35 AM 9.5 °F -7.2 °F 3.9 °F 78% 30.06 in 10.0 mi West 15.0 mph - N/A   Scattered Clouds
7:55 AM 9.5 °F -5.9 °F 3.9 °F 78% 30.07 in 10.0 mi West 12.7 mph - N/A   Scattered Clouds
8:15 AM 9.5 °F -5.9 °F 4.1 °F 79% 30.08 in 10.0 mi West 12.7 mph - N/A   Clear
8:35 AM 10.0 °F -6.5 °F 4.1 °F 77% 30.09 in 10.0 mi West 15.0 mph - N/A   Scattered Clouds
8:55 AM 10.6 °F -6.4 °F 4.3 °F 76% 30.10 in 10.0 mi WNW 16.1 mph - N/A   Scattered Clouds
9:15 AM 10.9 °F -5.4 °F 4.5 °F 75% 30.11 in 10.0 mi West 15.0 mph 20.7 mph N/A   Mostly Cloudy
9:35 AM 11.5 °F -6.7 °F 4.6 °F 74% 30.12 in 10.0 mi WNW 19.6 mph - N/A   Mostly Cloudy
9:55 AM 12.2 °F -4.8 °F 5.0 °F 73% 30.13 in 10.0 mi WNW 17.3 mph - N/A   Scattered Clouds
10:15 AM 12.9 °F -4.4 °F 5.2 °F 71% 30.14 in 10.0 mi WNW 18.4 mph 21.9 mph N/A   Clear
10:35 AM 13.6 °F -3.5 °F 5.7 °F 71% 30.16 in 10.0 mi West 18.4 mph - N/A   Clear
10:55 AM 14.5 °F -0.7 °F 6.4 °F 70% 30.16 in 10.0 mi WNW 15.0 mph 20.7 mph N/A   Clear
11:15 AM 15.1 °F -0.1 °F 6.8 °F 70% 30.17 in 10.0 mi WNW 15.0 mph - N/A   Clear
11:35 AM 15.6 °F 1.2 °F 7.0 °F 69% 30.17 in 10.0 mi WNW 13.8 mph 19.6 mph N/A   Scattered Clouds
11:55 AM 16.3 °F 2.1 °F 7.3 °F 68% 30.17 in 10.0 mi West 13.8 mph - N/A   Clear
12:15 PM 17.2 °F 3.3 °F 7.9 °F 67% 30.18 in 10.0 mi WNW 13.8 mph - N/A   Clear
12:35 PM 17.6 °F 2.2 °F 8.1 °F 66% 30.19 in 10.0 mi West 17.3 mph - N/A   Clear
12:55 PM 18.3 °F 3.6 °F 8.4 °F 65% 30.20 in 10.0 mi WNW 16.1 mph 20.7 mph N/A   Scattered Clouds
1:15 PM 19.0 °F 5.0 °F 8.8 °F 64% 30.21 in 10.0 mi West 15.0 mph - N/A   Clear
1:35 PM 19.2 °F 5.8 °F 8.8 °F 64% 30.21 in 10.0 mi WNW 13.8 mph - N/A   Clear
1:55 PM 19.4 °F 5.0 °F 8.8 °F 63% 30.21 in 10.0 mi WNW 16.1 mph - N/A   Scattered Clouds
2:15 PM 19.2 °F 6.4 °F 8.6 °F 63% 30.21 in 10.0 mi WNW 12.7 mph - N/A   Scattered Clouds
2:35 PM 19.4 °F 6.6 °F 8.8 °F 63% 30.21 in 10.0 mi NW 12.7 mph - N/A   Clear
2:55 PM 19.2 °F 6.4 °F 8.6 °F 63% 30.23 in 10.0 mi WNW 12.7 mph - N/A   Clear
3:15 PM 19.0 °F 6.8 °F 8.8 °F 64% 30.23 in 10.0 mi WNW 11.5 mph - N/A   Clear
3:35 PM 18.7 °F 7.8 °F 8.6 °F 65% 30.24 in 10.0 mi WNW 9.2 mph - N/A   Clear
3:55 PM 18.1 °F 6.3 °F 8.8 °F 67% 30.26 in 10.0 mi WNW 10.4 mph - N/A   Clear
4:15 PM 17.2 °F 7.8 °F 8.6 °F 69% 30.26 in 10.0 mi NW 6.9 mph - N/A   Clear
4:35 PM 15.3 °F 6.6 °F 8.1 °F 73% 30.27 in 10.0 mi WNW 5.8 mph - N/A   Clear
4:55 PM 13.6 °F 6.0 °F 7.7 °F 77% 30.28 in 10.0 mi West 4.6 mph - N/A   Clear
5:15 PM 13.3 °F 4.2 °F 7.9 °F 79% 30.28 in 10.0 mi West 5.8 mph - N/A   Clear
5:35 PM 13.5 °F 4.4 °F 7.9 °F 78% 30.29 in 10.0 mi West 5.8 mph - N/A   Clear
5:55 PM 13.5 °F 3.3 °F 8.1 °F 79% 30.30 in 10.0 mi WNW 6.9 mph - N/A   Clear
6:15 PM 11.1 °F 0.4 °F 6.3 °F 81% 30.30 in 10.0 mi WNW 6.9 mph - N/A   Clear
6:35 PM 9.3 °F -1.7 °F 5.2 °F 83% 30.30 in 10.0 mi NW 6.9 mph - N/A   Clear
6:55 PM 10.2 °F 3.8 °F 6.1 °F 83% 30.30 in 10.0 mi NNW 3.5 mph - N/A   Clear
7:15 PM 10.6 °F - 6.6 °F 84% 30.31 in 10.0 mi Calm Calm - N/A   Clear
7:35 PM 11.5 °F - 7.3 °F 83% 30.31 in 10.0 mi Calm Calm - N/A   Clear
7:55 PM 10.9 °F - 7.0 °F 84% 30.31 in 10.0 mi Calm Calm - N/A   Clear
8:15 PM 11.1 °F - 7.3 °F 85% 30.30 in 10.0 mi Calm Calm - N/A   Clear
8:35 PM 11.3 °F - 7.7 °F 85% 30.30 in 10.0 mi Calm Calm - N/A   Clear
8:55 PM 11.7 °F - 7.9 °F 85% 30.32 in 10.0 mi Calm Calm - N/A   Clear
9:15 PM 12.0 °F - 7.9 °F 83% 30.32 in 10.0 mi Calm Calm - N/A   Clear
9:35 PM 10.9 °F - 7.5 °F 86% 30.33 in 10.0 mi Calm Calm - N/A   Clear
9:55 PM 10.9 °F 4.7 °F 7.9 °F 87% 30.34 in 10.0 mi SW 3.5 mph - N/A   Clear
10:15 PM 10.6 °F - 7.5 °F 87% 30.34 in 10.0 mi Calm Calm - N/A   Clear
10:35 PM 8.4 °F - 5.4 °F 87% 30.34 in 10.0 mi Calm Calm - N/A   Clear
10:55 PM 7.5 °F - 4.5 °F 87% 30.35 in 10.0 mi Calm Calm - N/A   Clear
11:15 PM 7.3 °F - 4.1 °F 87% 30.36 in 10.0 mi Calm Calm - N/A   Clear
11:35 PM 6.6 °F - 3.0 °F 85% 30.35 in 10.0 mi Calm Calm - N/A   Clear
11:55 PM 6.3 °F - 3.2 °F 87% 30.34 in 10.0 mi Calm Calm - N/A   Clear